Green Bay, WI

12:27 PM CDT on September 19, 2017 (GMT -0500)
Austin Straubel International

Weather History for KGRB - October, 2012

Change the Weather History Date:

Thursday, October 25, 2012

  Actual Average Record
Temperature  
Mean Temperature 55 °F 44 °F  
Max Temperature 70 °F 53 °F 78 °F (1989)
Min Temperature 39 °F 35 °F 8 °F (1887)
Degree Days  
Heating Degree Days 10 21  
Month to date heating degree days 389 423  
Since 1 July heating degree days 631 693  
Cooling Degree Days 0 0  
Month to date cooling degree days 0 0  
Year to date cooling degree days 786 395  
Growing Degree Days 4 (Base 50)    
Moisture  
Dew Point 54 °F    
Average Humidity 81    
Maximum Humidity 89    
Minimum Humidity 73    
Precipitation  
Precipitation 0.51 in 0.08 in 1.02 in (1898)
Month to date precipitation 4.92 1.99  
Year to date precipitation 27.94 25.43  
Snow  
Snow 0.00 in 0.00 in 3.00 in (1898)
Month to date snowfall 0.0 0.1  
Since 1 July snowfall 0.0 0.1  
Since 1 September snowfall 0.0 0.1  
Snow Depth 0.00 in    
Sea Level Pressure  
Sea Level Pressure 29.67 in    
Wind  
Wind Speed 18 mph (SW)    
Max Wind Speed 30 mph    
Max Gust Speed 40 mph    
Visibility 7 miles    
Events Rain    
T = Trace of Precipitation, MM = Missing Value Source: NWS Daily Summary

Daily Weather History Graph

Daily Weather History Graph

Search for Another Location

Airport or City:

Trip Planner

Search our weather history database for the weather conditions in past years. The results will help you decide how hot, cold, wet, or windy it might be!

Date:

Astronomy

Oct. 25, 2012 Rise Set
Actual Time 7:21 AM CDT 5:51 PM CDT
Civil Twilight 6:51 AM CDT 6:20 PM CDT
Nautical Twilight 6:17 AM CDT 6:54 PM CDT
Astronomical Twilight 5:43 AM CDT 7:28 PM CDT
Moon 3:44 PM CDT (10/25) 3:08 AM CDT (10/25)
Length of Visible Light 11h 29m
Length of Day
10h 29m
Waxing Gibbous, 84% of the Moon is Illuminated
Oct 25
Waxing Gibbous
Oct 29
Full
Nov 6
Last Quarter
Nov 13
New
Nov 20
First Quarter

Hourly Weather History & Observations

Time (CDT) Temp. Windchill Dew Point Humidity Pressure Visibility Wind Dir Wind Speed Gust Speed Precip Events Conditions
12:53 AM 69.1 °F - 63.0 °F 81% 29.73 in 9.0 mi South 11.5 mph - N/A   Clear
1:53 AM 66.9 °F - 63.0 °F 87% 29.72 in 8.0 mi South 10.4 mph - N/A   Partly Cloudy
2:53 AM 66.0 °F - 62.1 °F 87% 29.70 in 8.0 mi SSE 11.5 mph - N/A   Scattered Clouds
3:53 AM 64.9 °F - 61.0 °F 87% 29.69 in 7.0 mi SSE 10.4 mph - N/A   Overcast
4:53 AM 66.0 °F - 61.0 °F 84% 29.69 in 8.0 mi South 11.5 mph - N/A   Mostly Cloudy
5:53 AM 64.9 °F - 61.0 °F 87% 29.66 in 8.0 mi South 10.4 mph - N/A   Partly Cloudy
6:53 AM 64.0 °F - 60.1 °F 87% 29.64 in 8.0 mi South 12.7 mph - N/A   Clear
7:53 AM 64.9 °F - 61.0 °F 87% 29.63 in 8.0 mi South 12.7 mph - N/A   Clear
8:53 AM 66.9 °F - 61.0 °F 81% 29.60 in 9.0 mi South 18.4 mph - N/A   Clear
9:35 AM 69.8 °F - 60.8 °F 73% 29.61 in 10.0 mi South 17.3 mph 24.2 mph N/A   Mostly Cloudy
9:53 AM 69.1 °F - 61.0 °F 75% 29.60 in 10.0 mi South 27.6 mph 40.3 mph N/A   Overcast
10:53 AM 69.1 °F - 61.0 °F 75% 29.59 in 9.0 mi SSW 18.4 mph 32.2 mph N/A   Overcast
11:53 AM 70.0 °F - 61.0 °F 73% 29.57 in 9.0 mi South 20.7 mph 31.1 mph N/A   Overcast
12:16 PM 69.8 °F - 60.8 °F 73% 29.56 in 9.0 mi South 18.4 mph 27.6 mph N/A   Overcast
12:46 PM 69.8 °F - 60.8 °F 73% 29.56 in 9.0 mi South 20.7 mph 29.9 mph N/A   Overcast
12:53 PM 70.0 °F - 61.0 °F 73% 29.54 in 9.0 mi South 19.6 mph 29.9 mph N/A   Overcast
1:53 PM 70.0 °F - 61.0 °F 73% 29.53 in 9.0 mi South 17.3 mph 32.2 mph N/A   Overcast
2:53 PM 69.1 °F - 62.1 °F 78% 29.51 in 8.0 mi South 24.2 mph 32.2 mph 0.00 in Rain Light Rain
3:53 PM 69.1 °F - 62.1 °F 78% 29.51 in 6.0 mi SSW 19.6 mph 34.5 mph 0.00 in Rain Light Rain
4:00 PM 62.6 °F - 59.0 °F 88% 29.54 in 2.0 mi West 19.6 mph 31.1 mph 0.00 in Rain Heavy Rain
4:10 PM 60.8 °F - 57.2 °F 88% 29.57 in 4.0 mi West 17.3 mph - 0.03 in Rain Light Rain
4:17 PM 59.0 °F - 55.4 °F 88% 29.58 in 2.5 mi West 28.8 mph 34.5 mph 0.03 in Rain Light Rain
4:46 PM 55.4 °F - 51.8 °F 88% 29.56 in 2.5 mi West 24.2 mph 28.8 mph 0.03 in   Overcast
4:53 PM 55.0 °F - 52.0 °F 89% 29.60 in 2.5 mi West 23.0 mph 33.4 mph 0.03 in Rain Rain
4:57 PM 53.6 °F - 51.8 °F 94% 29.59 in 0.8 mi West 18.4 mph 33.4 mph 0.04 in Rain Heavy Rain
5:07 PM 53.6 °F - 51.8 °F 94% 29.65 in 3.0 mi WSW 16.1 mph 24.2 mph 0.21 in Rain Light Rain
5:51 PM 51.8 °F - 48.2 °F 88% 29.66 in 3.0 mi West 16.1 mph 21.9 mph 0.31 in Rain Heavy Rain
5:53 PM 52.0 °F - 48.9 °F 89% 29.66 in 3.0 mi West 13.8 mph - 0.33 in Rain Heavy Rain
6:00 PM 51.8 °F - 48.2 °F 88% 29.66 in 2.5 mi West 15.0 mph 20.7 mph 0.05 in Rain Rain
6:07 PM 51.8 °F - 48.2 °F 88% 29.68 in 7.0 mi West 19.6 mph 25.3 mph 0.06 in Rain Rain
6:53 PM 48.0 °F - 45.0 °F 89% 29.74 in 7.0 mi WNW 24.2 mph 27.6 mph 0.14 in Rain Light Rain
7:04 PM 46.4 °F 39.0 °F 42.8 °F 87% 29.76 in 10.0 mi WNW 19.6 mph 27.6 mph 0.00 in Rain Light Rain
7:18 PM 46.4 °F 39.5 °F 42.8 °F 87% 29.76 in 9.0 mi WNW 17.3 mph 27.6 mph 0.00 in Rain Light Rain
7:35 PM 46.4 °F 39.0 °F 42.8 °F 87% 29.76 in 10.0 mi WNW 19.6 mph - 0.01 in Rain Light Rain
7:53 PM 44.6 °F 36.9 °F 41.0 °F 87% 29.79 in 10.0 mi West 18.4 mph 28.8 mph N/A   Overcast
8:53 PM 44.1 °F 36.5 °F 37.9 °F 79% 29.85 in 10.0 mi WNW 17.3 mph 27.6 mph N/A   Overcast
9:53 PM 44.1 °F 36.8 °F 37.0 °F 76% 29.88 in 10.0 mi WNW 16.1 mph 25.3 mph N/A   Overcast
10:53 PM 42.1 °F 32.8 °F 36.0 °F 79% 29.95 in 10.0 mi WNW 21.9 mph 31.1 mph N/A   Overcast
11:25 PM 39.2 °F 29.8 °F 33.8 °F 81% 29.98 in 10.0 mi WNW 18.4 mph 28.8 mph N/A   Overcast
11:53 PM 39.9 °F 30.5 °F 33.1 °F 77% 30.01 in 10.0 mi WNW 19.6 mph 26.5 mph N/A   Mostly Cloudy